Price, UT

5:27 PM MDT on July 23, 2017 (GMT -0600)
Carbon County

Weather History for KPUC - May, 2013

Change the Weather History Date:

Saturday, May 11, 2013

  Actual Average Record
Temperature  
Mean Temperature 60 °F -  
Max Temperature 75 °F 67 °F 84 °F (2007)
Min Temperature 46 °F 39 °F 25 °F (1999)
Degree Days  
Heating Degree Days 6    
Growing Degree Days 10 (Base 50)    
Moisture  
Dew Point 28 °F    
Average Humidity 32    
Maximum Humidity 52    
Minimum Humidity 15    
Precipitation  
Precipitation 0.00 in - - ()
Sea Level Pressure  
Sea Level Pressure 30.21 in    
Wind  
Wind Speed 5 mph (North)    
Max Wind Speed 13 mph    
Max Gust Speed 29 mph    
Visibility 10 miles    
Events      
Averages and records for this station are not official NWS values.
T = Trace of Precipitation, MM = Missing Value Source: NWS Daily Summary

Daily Weather History Graph

Daily Weather History Graph

Search for Another Location

Airport or City:

Trip Planner

Search our weather history database for the weather conditions in past years. The results will help you decide how hot, cold, wet, or windy it might be!

Date:

Astronomy

May. 11, 2013 Rise Set
Actual Time 6:12 AM MDT 8:27 PM MDT
Civil Twilight 5:42 AM MDT 8:57 PM MDT
Nautical Twilight 5:05 AM MDT 9:34 PM MDT
Astronomical Twilight 4:24 AM MDT 10:15 PM MDT
Moon 7:22 AM MDT (5/11) 10:10 PM MDT (5/11)
Length of Visible Light 15h 15m
Length of Day
14h 14m
Waxing Crescent, 3% of the Moon is Illuminated
May 11
Waxing Crescent
May 17
First Quarter
May 24
Full
May 31
Last Quarter
Jun 8
New

Hourly Weather History & Observations

Time (MDT) Temp. Windchill Dew Point Humidity Pressure Visibility Wind Dir Wind Speed Gust Speed Precip Events Conditions
12:53 AM 51.1 °F - 30.0 °F 44% 30.20 in 10.0 mi NNE 4.6 mph - N/A   Clear
1:53 AM 54.0 °F - 28.9 °F 38% 30.19 in 10.0 mi Variable 4.6 mph - N/A   Clear
2:53 AM 51.1 °F - 30.0 °F 44% 30.21 in 10.0 mi Variable 3.5 mph - N/A   Clear
3:53 AM 48.9 °F - 30.9 °F 50% 30.22 in 10.0 mi North 3.5 mph - N/A   Clear
4:53 AM 46.9 °F - 30.0 °F 52% 30.23 in 10.0 mi North 4.6 mph - N/A   Clear
5:53 AM 46.0 °F 43.1 °F 28.9 °F 51% 30.25 in 10.0 mi North 5.8 mph - N/A   Clear
6:53 AM 48.9 °F - 30.9 °F 50% 30.26 in 10.0 mi NNE 9.2 mph - N/A   Clear
7:53 AM 60.1 °F - 32.0 °F 35% 30.24 in 10.0 mi NNE 5.8 mph - N/A   Clear
8:53 AM 66.0 °F - 26.1 °F 22% 30.23 in 10.0 mi NNE 5.8 mph - N/A   Clear
9:53 AM 66.9 °F - 28.9 °F 24% 30.22 in 10.0 mi South 5.8 mph - N/A   Clear
10:53 AM 70.0 °F - 23.0 °F 17% 30.21 in 10.0 mi Variable 4.6 mph - N/A   Clear
11:53 AM 71.1 °F - 23.0 °F 16% 30.22 in 10.0 mi South 5.8 mph - N/A   Clear
12:53 PM 73.0 °F - 21.9 °F 15% 30.19 in 10.0 mi WSW 9.2 mph - N/A   Mostly Cloudy
1:53 PM 71.1 °F - 23.0 °F 16% 30.19 in 10.0 mi West 12.7 mph 28.8 mph N/A   Overcast
2:53 PM 72.0 °F - 21.9 °F 15% 30.19 in 10.0 mi Calm Calm - N/A   Scattered Clouds
3:53 PM 73.0 °F - 24.1 °F 16% 30.17 in 10.0 mi SW 9.2 mph 20.7 mph N/A   Mostly Cloudy
4:53 PM 71.1 °F - 21.9 °F 16% 30.18 in 10.0 mi East 3.5 mph - N/A   Scattered Clouds
5:53 PM 70.0 °F - 26.1 °F 19% 30.20 in 10.0 mi Variable 4.6 mph - N/A   Overcast
6:53 PM 68.0 °F - 28.9 °F 23% 30.19 in 10.0 mi Variable 5.8 mph - N/A   Clear
7:53 PM 66.2 °F - 30.2 °F 26% 30.31 in 10.0 mi Calm Calm - N/A   Clear
8:53 PM 60.1 °F - 32.0 °F 35% 30.16 in 10.0 mi North 6.9 mph - N/A   Clear
9:53 PM 55.9 °F - 34.0 °F 44% 30.18 in 10.0 mi NNE 10.4 mph - N/A   Clear
10:53 PM 53.1 °F - 33.1 °F 47% 30.18 in 10.0 mi North 4.6 mph - N/A   Clear
11:53 PM 51.1 °F - 32.0 °F 48% 30.19 in 10.0 mi North 9.2 mph - N/A   Clear